This demonstration page uses our WeatherBlox Daily Observations layout. Learn more.

36.17497, -115.13722

Hourly Observations for November 1, 2019

Temp ( °F °C ) Dew Point ( °F °C ) Humidity (%) Winds ( mph kmh ) Pressure ( in mb ) Visibility ( mi km ) Precip ( " mm )
12:53 am 00:53 Clear 43 6.1 6 -14.4 22 22 WNW 8 13 30.28 1025 10 16.0934 0 0
1:53 am 01:53 Clear 43 6.1 -2 -18.9 15 15 WNW 8 13 30.27 1025 10 16.0934 0 0
2:53 am 02:53 Clear 42 5.6 -3 -19.4 15 15 Calm 30.27 1025 10 16.0934 0 0
3:53 am 03:53 Clear 41 5 -2 -18.9 16 16 Calm 30.27 1025 10 16.0934 0 0
4:53 am 04:53 Clear 40 4.4 6 -14.4 24 24 Calm 30.27 1025 10 16.0934 0 0
5:53 am 05:53 Clear 39 3.9 4 -15.6 23 23 WNW 3 6 30.27 1025 10 16.0934 0 0
6:53 am 06:53 Clear 39 3.9 1 -17.2 20 20 NW 7 11 30.29 1026 10 16.0934 0 0
7:53 am 07:53 Sunny 41 5 0 -17.8 18 18 WNW 5 7 30.32 1027 10 16.0934 0 0
8:53 am 08:53 Sunny 50 10 -2 -18.9 11 11 NNW 3 6 30.33 1027 9 14.48406 0 0
9:53 am 09:53 Sunny 53 11.7 -1 -18.3 11 11 Calm 30.34 1027 10 16.0934 0 0
10:53 am 10:53 Sunny 57 13.9 1 -17.2 10 10 ESE 3 6 30.33 1027 10 16.0934 0 0
11:53 am 11:53 Sunny 60 15.6 1 -17.2 9 9 Calm 30.31 1027 10 16.0934 0 0
12:53 pm 12:53 Sunny 63 17.2 -4 -20 6 6 Calm 30.27 1025 10 16.0934 0 0
1:53 pm 13:53 Sunny 65 18.3 -6 -21.1 5 5 Calm 30.25 1025 10 16.0934 0 0
2:53 pm 14:53 Sunny 68 20 -5 -20.6 5 5 Calm 30.24 1024 10 16.0934 0 0
3:53 pm 15:53 Sunny 68 20 -5 -20.6 5 5 Calm 30.23 1024 10 16.0934 0 0
4:53 pm 16:53 Sunny 68 20 -1 -18.3 6 6 SW 3 6 30.22 1023 10 16.0934 0 0
5:53 pm 17:53 Clear 66 18.9 1 -17.2 7 7 W 5 7 30.22 1023 10 16.0934 0 0
6:53 pm 18:53 Clear 61 16.1 6 -14.4 11 11 NW 3 6 30.24 1024 10 16.0934 0 0
7:53 pm 19:53 Clear 58 14.4 8 -13.3 13 13 W 5 7 30.25 1024 10 16.0934 0 0
8:53 pm 20:53 Clear 55 12.8 10 -12.2 16 16 NW 7 11 30.25 1024 10 16.0934 0 0
9:53 pm 21:53 Clear 51 10.6 12 -11.1 21 21 N 3 6 30.27 1025 10 16.0934 0 0
10:53 pm 22:53 Clear 49 9.4 12 -11.1 22 22 WNW 6 9 30.29 1026 10 16.0934 0 0
11:53 pm 23:53 Clear 47 8.3 8 -13.3 20 20 NW 3 6 30.28 1026 10 16.0934 0 0

Powered by AerisWeather